{"data":{"norad_id":68069,"epoch":"2026-05-25T03:11:27.039840Z","epoch_age_seconds":70309,"freshness":"FRESH","line1":"1 68069U 26042A   26145.13295185  .00013360  00000+0  40578-3 0  9994","line2":"2 68069  53.1584 183.3285 0001219  89.6784 270.4358 15.34404244 14018","mean_motion":15.34404244,"eccentricity":0.0001219,"inclination_deg":53.1584,"raan_deg":183.3285,"arg_perigee_deg":89.6784,"mean_anomaly_deg":270.4358,"bstar":0.00040578,"rev_number":1401,"period_min":93.847498508353,"perigee_km":461.85672928617,"apogee_km":463.52452306143,"semimajor_km":6840.8276261738,"source":"CELESTRAK","updated_at":"2026-05-25T13:38:21.817021Z"}}